Time,TemperatureF,DewpointF,PressureIn,WindDirection,WindDirectionDegrees,WindSpeedMPH,WindSpeedGustMPH,Humidity,HourlyPrecipIn,Conditions,Clouds,dailyrainin,SoftwareType,DateUTC
2013-04-05 00:00:00,29.5,19.2,29.91,SSE,157,0.0,-999.0,65,0.00,,,0.00,MetarLogicWeatherSta,2013-04-05 04:00:00,
2013-04-05 00:05:00,29.2,19.2,29.90,SSE,157,0.0,-999.0,66,0.00,,,0.00,MetarLogicWeatherSta,2013-04-05 04:05:00,
2013-04-05 00:10:00,29.0,19.9,29.90,SE,135,0.0,-999.0,68,0.00,,,0.00,MetarLogicWeatherSta,2013-04-05 04:10:00,
2013-04-05 00:15:00,29.0,20.0,29.90,South,180,0.0,-999.0,68,0.00,,,0.00,MetarLogicWeatherSta,2013-04-05 04:15:00,
2013-04-05 00:20:00,29.1,20.2,29.90,SSE,157,0.0,-999.0,68,0.00,,,0.00,MetarLogicWeatherSta,2013-04-05 04:20:00,
2013-04-05 00:25:00,29.1,20.1,29.90,SSE,157,0.0,-999.0,68,0.00,,,0.00,MetarLogicWeatherSta,2013-04-05 04:25:00,
2013-04-05 00:30:00,29.0,20.0,29.90,SSE,157,0.0,-999.0,68,0.00,,,0.00,MetarLogicWeatherSta,2013-04-05 04:30:00,
2013-04-05 00:35:00,28.9,19.8,29.90,SE,135,0.0,-999.0,68,0.00,,,0.00,MetarLogicWeatherSta,2013-04-05 04:35:00,
2013-04-05 00:40:00,28.7,20.0,29.90,SSE,157,0.0,-999.0,69,0.00,,,0.00,MetarLogicWeatherSta,2013-04-05 04:40:00,
2013-04-05 00:45:00,28.4,19.4,29.90,SSE,157,0.0,-999.0,68,0.00,,,0.00,MetarLogicWeatherSta,2013-04-05 04:45:00,
2013-04-05 00:50:00,28.1,19.4,29.90,SSE,157,0.0,-999.0,69,0.00,,,0.00,MetarLogicWeatherSta,2013-04-05 04:50:00,
2013-04-05 00:56:00,27.8,19.2,29.90,SSE,157,0.0,-999.0,69,0.00,,,0.00,MetarLogicWeatherSta,2013-04-05 04:56:00,
2013-04-05 01:01:00,27.4,19.0,29.89,SSE,157,0.0,-999.0,70,0.00,,,0.00,MetarLogicWeatherSta,2013-04-05 05:01:00,
2013-04-05 01:06:00,27.2,18.9,29.90,SSE,157,0.0,-999.0,70,0.00,,,0.00,MetarLogicWeatherSta,2013-04-05 05:06:00,
2013-04-05 01:11:00,27.2,19.0,29.90,SSE,157,0.0,-999.0,70,0.00,,,0.00,MetarLogicWeatherSta,2013-04-05 05:11:00,
2013-04-05 01:16:00,28.0,20.1,29.90,SSE,157,0.0,-999.0,72,0.00,,,0.00,MetarLogicWeatherSta,2013-04-05 05:16:00,
2013-04-05 01:21:00,28.3,20.1,29.90,SSE,157,0.0,-999.0,71,0.00,,,0.00,MetarLogicWeatherSta,2013-04-05 05:21:00,
2013-04-05 01:26:00,28.3,19.8,29.90,SSE,157,0.0,-999.0,70,0.00,,,0.00,MetarLogicWeatherSta,2013-04-05 05:26:00,
2013-04-05 01:31:00,28.3,19.9,29.90,SSE,157,0.0,-999.0,70,0.00,,,0.00,MetarLogicWeatherSta,2013-04-05 05:31:00,
2013-04-05 01:36:00,28.2,19.8,29.90,SSE,157,0.0,-999.0,70,0.00,,,0.00,MetarLogicWeatherSta,2013-04-05 05:36:00,
2013-04-05 01:41:00,28.1,19.6,29.90,SSE,157,0.0,-999.0,70,0.00,,,0.00,MetarLogicWeatherSta,2013-04-05 05:41:00,
2013-04-05 01:46:00,28.1,19.3,29.90,SE,135,0.0,-999.0,69,0.00,,,0.00,MetarLogicWeatherSta,2013-04-05 05:46:00,
2013-04-05 01:52:00,28.0,19.3,29.89,SSE,157,0.0,-999.0,69,0.00,,,0.00,MetarLogicWeatherSta,2013-04-05 05:52:00,
2013-04-05 01:57:00,27.9,19.0,29.90,SSE,157,0.0,-999.0,69,0.00,,,0.00,MetarLogicWeatherSta,2013-04-05 05:57:00,
2013-04-05 02:02:00,28.6,19.0,29.90,ESE,112,0.0,-999.0,67,0.00,,,0.00,MetarLogicWeatherSta,2013-04-05 06:02:00,
2013-04-05 02:07:00,30.4,20.0,29.88,SSE,157,0.0,-999.0,64,0.00,,,0.00,MetarLogicWeatherSta,2013-04-05 06:07:00,
2013-04-05 02:12:00,31.3,19.5,29.88,SSE,157,0.0,-999.0,61,0.00,,,0.00,MetarLogicWeatherSta,2013-04-05 06:12:00,
2013-04-05 02:17:00,32.2,19.7,29.88,South,180,0.0,-999.0,59,0.00,,,0.00,MetarLogicWeatherSta,2013-04-05 06:17:00,
2013-04-05 02:22:00,32.5,19.4,29.88,SSE,157,0.0,-999.0,58,0.00,,,0.00,MetarLogicWeatherSta,2013-04-05 06:22:00,
2013-04-05 02:27:00,32.6,19.0,29.88,SSE,157,0.0,-999.0,57,0.00,,,0.00,MetarLogicWeatherSta,2013-04-05 06:27:00,
2013-04-05 02:32:00,33.0,19.5,29.88,SSE,157,0.0,-999.0,57,0.00,,,0.00,MetarLogicWeatherSta,2013-04-05 06:32:00,
2013-04-05 02:37:00,33.1,19.2,29.87,SSE,157,0.0,-999.0,56,0.00,,,0.00,MetarLogicWeatherSta,2013-04-05 06:37:00,
2013-04-05 02:42:00,33.5,18.8,29.87,South,180,0.0,-999.0,54,0.00,,,0.00,MetarLogicWeatherSta,2013-04-05 06:42:00,
2013-04-05 02:47:00,33.6,18.8,29.87,SSE,157,0.0,-999.0,54,0.00,,,0.00,MetarLogicWeatherSta,2013-04-05 06:47:00,
2013-04-05 02:52:00,34.1,18.5,29.87,ESE,112,0.0,-999.0,52,0.00,,,0.00,MetarLogicWeatherSta,2013-04-05 06:52:00,
2013-04-05 02:57:00,34.5,18.7,29.87,South,180,0.0,-999.0,52,0.00,,,0.00,MetarLogicWeatherSta,2013-04-05 06:57:00,
2013-04-05 03:02:00,34.6,18.3,29.87,SSE,157,0.0,-999.0,51,0.00,,,0.00,MetarLogicWeatherSta,2013-04-05 07:02:00,
2013-04-05 03:07:00,34.9,18.5,29.88,SSE,157,0.0,-999.0,51,0.00,,,0.00,MetarLogicWeatherSta,2013-04-05 07:07:00,
2013-04-05 03:12:00,35.2,18.3,29.88,SSE,157,0.0,-999.0,50,0.00,,,0.00,MetarLogicWeatherSta,2013-04-05 07:12:00,
2013-04-05 03:17:00,34.5,17.9,29.88,SSE,157,0.0,-999.0,50,0.00,,,0.00,MetarLogicWeatherSta,2013-04-05 07:17:00,
2013-04-05 03:22:00,33.5,17.4,29.88,SSE,157,0.0,-999.0,51,0.00,,,0.00,MetarLogicWeatherSta,2013-04-05 07:22:00,
2013-04-05 03:28:00,33.3,18.0,29.88,South,180,0.0,-999.0,52,0.00,,,0.00,MetarLogicWeatherSta,2013-04-05 07:28:00,
2013-04-05 03:33:00,31.5,18.1,29.88,SSE,157,0.0,-999.0,57,0.00,,,0.00,MetarLogicWeatherSta,2013-04-05 07:33:00,
2013-04-05 03:38:00,31.1,18.0,29.88,SSE,157,0.0,-999.0,57,0.00,,,0.00,MetarLogicWeatherSta,2013-04-05 07:38:00,
2013-04-05 03:43:00,31.0,18.1,29.88,SSE,157,0.0,-999.0,58,0.00,,,0.00,MetarLogicWeatherSta,2013-04-05 07:43:00,
2013-04-05 03:49:00,30.5,17.8,29.88,SSE,157,0.0,-999.0,58,0.00,,,0.00,MetarLogicWeatherSta,2013-04-05 07:49:00,
2013-04-05 03:54:00,30.1,17.6,29.88,SSE,157,0.0,-999.0,59,0.00,,,0.00,MetarLogicWeatherSta,2013-04-05 07:54:00,
2013-04-05 03:59:00,29.9,17.5,29.88,SSE,157,0.0,-999.0,59,0.00,,,0.00,MetarLogicWeatherSta,2013-04-05 07:59:00,
2013-04-05 04:04:00,29.6,17.6,29.88,SSE,157,0.0,-999.0,60,0.00,,,0.00,MetarLogicWeatherSta,2013-04-05 08:04:00,
2013-04-05 04:09:00,29.2,17.3,29.88,SSE,157,0.0,-999.0,60,0.00,,,0.00,MetarLogicWeatherSta,2013-04-05 08:09:00,
2013-04-05 04:14:00,29.0,17.5,29.88,SSE,157,0.0,-999.0,61,0.00,,,0.00,MetarLogicWeatherSta,2013-04-05 08:14:00,
2013-04-05 04:19:00,28.9,17.7,29.88,SSE,157,0.0,-999.0,62,0.00,,,0.00,MetarLogicWeatherSta,2013-04-05 08:19:00,
2013-04-05 04:24:00,28.8,17.4,29.88,SSE,157,0.0,-999.0,62,0.00,,,0.00,MetarLogicWeatherSta,2013-04-05 08:24:00,
2013-04-05 04:29:00,28.5,17.5,29.88,SSE,157,0.0,-999.0,63,0.00,,,0.00,MetarLogicWeatherSta,2013-04-05 08:29:00,
2013-04-05 04:34:00,28.1,17.5,29.88,SSE,157,0.0,-999.0,64,0.00,,,0.00,MetarLogicWeatherSta,2013-04-05 08:34:00,
2013-04-05 04:39:00,28.1,17.5,29.88,SSE,157,0.0,-999.0,64,0.00,,,0.00,MetarLogicWeatherSta,2013-04-05 08:39:00,
2013-04-05 04:44:00,28.3,17.8,29.88,SSE,157,0.0,-999.0,64,0.00,,,0.00,MetarLogicWeatherSta,2013-04-05 08:44:00,
2013-04-05 04:49:00,28.3,17.7,29.88,SSE,157,0.0,-999.0,64,0.00,,,0.00,MetarLogicWeatherSta,2013-04-05 08:49:00,
2013-04-05 04:54:00,28.3,17.7,29.88,SSE,157,0.0,-999.0,64,0.00,,,0.00,MetarLogicWeatherSta,2013-04-05 08:54:00,
2013-04-05 04:59:00,28.3,17.9,29.89,SSE,157,0.0,-999.0,64,0.00,,,0.00,MetarLogicWeatherSta,2013-04-05 08:59:00,
2013-04-05 05:04:00,28.4,18.1,29.89,SSE,157,0.0,-999.0,65,0.00,,,0.00,MetarLogicWeatherSta,2013-04-05 09:04:00,
2013-04-05 05:09:00,28.6,18.9,29.90,SSE,157,0.0,-999.0,66,0.00,,,0.00,MetarLogicWeatherSta,2013-04-05 09:09:00,
2013-04-05 05:14:00,28.8,19.4,29.90,SSE,157,0.0,-999.0,67,0.00,,,0.00,MetarLogicWeatherSta,2013-04-05 09:14:00,
2013-04-05 05:19:00,28.9,19.7,29.89,SSE,157,0.0,-999.0,68,0.00,,,0.00,MetarLogicWeatherSta,2013-04-05 09:19:00,
2013-04-05 05:24:00,29.4,19.8,29.90,SSE,157,0.0,-999.0,67,0.00,,,0.00,MetarLogicWeatherSta,2013-04-05 09:24:00,
2013-04-05 05:29:00,29.8,20.4,29.90,South,180,0.0,-999.0,67,0.00,,,0.00,MetarLogicWeatherSta,2013-04-05 09:29:00,
2013-04-05 05:34:00,30.6,21.0,29.90,SSE,157,0.0,-999.0,67,0.00,,,0.00,MetarLogicWeatherSta,2013-04-05 09:34:00,
2013-04-05 05:39:00,30.9,21.0,29.90,SSE,157,0.0,-999.0,66,0.00,,,0.00,MetarLogicWeatherSta,2013-04-05 09:39:00,
2013-04-05 05:44:00,31.5,21.2,29.90,SSE,157,0.0,-999.0,65,0.00,,,0.00,MetarLogicWeatherSta,2013-04-05 09:44:00,
2013-04-05 05:49:00,31.9,21.3,29.90,SSE,157,0.0,-999.0,64,0.00,,,0.00,MetarLogicWeatherSta,2013-04-05 09:49:00,
2013-04-05 05:54:00,32.3,21.7,29.90,SSE,157,0.0,-999.0,64,0.00,,,0.00,MetarLogicWeatherSta,2013-04-05 09:54:00,
2013-04-05 05:59:00,32.6,20.7,29.90,South,180,0.0,-999.0,61,0.00,,,0.00,MetarLogicWeatherSta,2013-04-05 09:59:00,
2013-04-05 06:04:00,33.1,21.4,29.91,South,180,0.0,-999.0,61,0.00,,,0.00,MetarLogicWeatherSta,2013-04-05 10:04:00,
2013-04-05 06:09:00,33.6,21.5,29.90,South,180,0.0,-999.0,60,0.00,,,0.00,MetarLogicWeatherSta,2013-04-05 10:09:00,
2013-04-05 06:14:00,33.9,21.8,29.91,SSE,157,0.0,-999.0,60,0.00,,,0.00,MetarLogicWeatherSta,2013-04-05 10:14:00,
2013-04-05 06:19:00,34.1,21.9,29.91,SSE,157,0.0,-999.0,60,0.00,,,0.00,MetarLogicWeatherSta,2013-04-05 10:19:00,
2013-04-05 06:24:00,34.0,22.4,29.91,SSE,157,0.0,-999.0,62,0.00,,,0.00,MetarLogicWeatherSta,2013-04-05 10:24:00,
2013-04-05 06:29:00,34.1,23.0,29.92,SSE,157,0.0,-999.0,63,0.00,,,0.00,MetarLogicWeatherSta,2013-04-05 10:29:00,
2013-04-05 06:34:00,34.0,22.9,29.92,SSE,157,0.0,-999.0,63,0.00,,,0.00,MetarLogicWeatherSta,2013-04-05 10:34:00,
2013-04-05 06:39:00,34.5,23.4,29.92,SSE,157,0.0,-999.0,63,0.00,,,0.00,MetarLogicWeatherSta,2013-04-05 10:39:00,
2013-04-05 06:44:00,34.1,23.2,29.92,SSE,157,0.0,-999.0,63,0.00,,,0.00,MetarLogicWeatherSta,2013-04-05 10:44:00,
2013-04-05 06:49:00,34.0,23.2,29.92,SSE,157,0.0,-999.0,64,0.00,,,0.00,MetarLogicWeatherSta,2013-04-05 10:49:00,
2013-04-05 06:55:00,34.2,23.7,29.92,SSE,157,0.0,-999.0,65,0.00,,,0.00,MetarLogicWeatherSta,2013-04-05 10:55:00,
2013-04-05 07:00:00,34.3,23.9,29.92,SSE,157,0.0,-999.0,65,0.00,,,0.00,MetarLogicWeatherSta,2013-04-05 11:00:00,
2013-04-05 07:05:00,34.4,24.1,29.92,SSE,157,0.0,-999.0,65,0.00,,,0.00,MetarLogicWeatherSta,2013-04-05 11:05:00,
2013-04-05 07:10:00,34.2,23.9,29.92,SSE,157,0.0,-999.0,65,0.00,,,0.00,MetarLogicWeatherSta,2013-04-05 11:10:00,
2013-04-05 07:15:00,34.3,24.0,29.92,SSE,157,0.0,-999.0,65,0.00,,,0.00,MetarLogicWeatherSta,2013-04-05 11:15:00,
2013-04-05 07:20:00,34.3,24.2,29.93,SSE,157,0.0,-999.0,66,0.00,,,0.00,MetarLogicWeatherSta,2013-04-05 11:20:00,
2013-04-05 07:25:00,34.3,24.0,29.93,SSE,157,0.0,-999.0,65,0.00,,,0.00,MetarLogicWeatherSta,2013-04-05 11:25:00,
2013-04-05 07:30:00,34.3,24.1,29.93,SE,135,0.0,-999.0,65,0.00,,,0.00,MetarLogicWeatherSta,2013-04-05 11:30:00,
2013-04-05 07:37:00,34.1,23.7,29.94,SSE,157,0.0,-999.0,65,0.00,,,0.00,MetarLogicWeatherSta,2013-04-05 11:37:00,
2013-04-05 07:42:00,34.2,24.4,29.94,SSE,157,0.0,-999.0,66,0.00,,,0.00,MetarLogicWeatherSta,2013-04-05 11:42:00,
2013-04-05 07:47:00,34.6,24.8,29.94,SSE,157,0.0,-999.0,67,0.00,,,0.00,MetarLogicWeatherSta,2013-04-05 11:47:00,
2013-04-05 07:52:00,35.0,25.0,29.94,SSE,157,0.0,-999.0,66,0.00,,,0.00,MetarLogicWeatherSta,2013-04-05 11:52:00,
2013-04-05 07:57:00,35.5,25.4,29.94,SSE,157,0.0,-999.0,66,0.00,,,0.00,MetarLogicWeatherSta,2013-04-05 11:57:00,
2013-04-05 08:02:00,35.8,25.5,29.94,SSE,157,0.0,-999.0,66,0.00,,,0.00,MetarLogicWeatherSta,2013-04-05 12:02:00,
2013-04-05 08:07:00,36.6,26.4,29.94,SSE,157,0.0,-999.0,66,0.00,,,0.00,MetarLogicWeatherSta,2013-04-05 12:07:00,
2013-04-05 08:12:00,37.4,26.9,29.94,South,180,0.0,-999.0,65,0.00,,,0.00,MetarLogicWeatherSta,2013-04-05 12:12:00,
2013-04-05 08:17:00,37.8,27.5,29.94,SSW,202,0.0,-999.0,65,0.00,,,0.00,MetarLogicWeatherSta,2013-04-05 12:17:00,
2013-04-05 08:22:00,38.1,27.7,29.94,South,180,3.0,-999.0,65,0.00,,,0.00,MetarLogicWeatherSta,2013-04-05 12:22:00,
2013-04-05 08:27:00,38.4,27.9,29.94,WSW,247,1.0,-999.0,65,0.00,,,0.00,MetarLogicWeatherSta,2013-04-05 12:27:00,
2013-04-05 08:32:00,38.5,28.1,29.94,South,180,0.0,-999.0,65,0.00,,,0.00,MetarLogicWeatherSta,2013-04-05 12:32:00,
2013-04-05 08:37:00,38.8,28.1,29.94,South,180,0.0,-999.0,65,0.00,,,0.00,MetarLogicWeatherSta,2013-04-05 12:37:00,
2013-04-05 08:42:00,39.3,28.4,29.94,South,180,3.0,-999.0,64,0.00,,,0.00,MetarLogicWeatherSta,2013-04-05 12:42:00,
2013-04-05 08:47:00,39.4,28.0,29.94,SW,225,3.0,-999.0,63,0.00,,,0.00,MetarLogicWeatherSta,2013-04-05 12:47:00,
2013-04-05 08:52:00,39.7,27.9,29.94,SSW,202,1.0,-999.0,62,0.00,,,0.00,MetarLogicWeatherSta,2013-04-05 12:52:00,
2013-04-05 08:57:00,39.9,27.1,29.94,SW,225,4.0,-999.0,59,0.00,,,0.00,MetarLogicWeatherSta,2013-04-05 12:57:00,
2013-04-05 09:02:00,39.8,27.0,29.94,SSW,202,6.0,-999.0,59,0.00,,,0.00,MetarLogicWeatherSta,2013-04-05 13:02:00,
2013-04-05 09:07:00,40.1,27.7,29.94,South,180,1.0,-999.0,60,0.00,,,0.00,MetarLogicWeatherSta,2013-04-05 13:07:00,
2013-04-05 09:12:00,40.2,27.5,29.94,SSW,202,0.0,-999.0,60,0.00,,,0.00,MetarLogicWeatherSta,2013-04-05 13:12:00,
2013-04-05 09:17:00,40.4,27.6,29.94,West,270,3.0,-999.0,59,0.00,,,0.00,MetarLogicWeatherSta,2013-04-05 13:17:00,
2013-04-05 09:22:00,40.5,28.0,29.94,SW,225,3.0,-999.0,60,0.00,,,0.00,MetarLogicWeatherSta,2013-04-05 13:22:00,
2013-04-05 09:28:00,40.5,28.1,29.94,SW,225,4.0,-999.0,60,0.00,,,0.00,MetarLogicWeatherSta,2013-04-05 13:28:00,
2013-04-05 09:33:00,40.6,26.6,29.94,WSW,247,6.0,-999.0,57,0.00,,,0.00,MetarLogicWeatherSta,2013-04-05 13:33:00,
2013-04-05 09:38:00,40.7,26.7,29.94,WSW,247,3.0,-999.0,57,0.00,,,0.00,MetarLogicWeatherSta,2013-04-05 13:38:00,
2013-04-05 09:43:00,40.6,26.6,29.94,WSW,247,4.0,-999.0,57,0.00,,,0.00,MetarLogicWeatherSta,2013-04-05 13:43:00,
2013-04-05 09:48:00,41.2,27.2,29.94,WNW,292,3.0,-999.0,57,0.00,,,0.00,MetarLogicWeatherSta,2013-04-05 13:48:00,
2013-04-05 09:53:00,41.2,27.0,29.94,West,270,3.0,-999.0,56,0.00,,,0.00,MetarLogicWeatherSta,2013-04-05 13:53:00,
2013-04-05 09:58:00,41.5,27.0,29.94,SW,225,4.0,-999.0,56,0.00,,,0.00,MetarLogicWeatherSta,2013-04-05 13:58:00,
2013-04-05 10:03:00,41.3,27.1,29.94,SW,225,3.0,-999.0,56,0.00,,,0.00,MetarLogicWeatherSta,2013-04-05 14:03:00,
2013-04-05 10:08:00,42.0,27.7,29.94,SSW,202,7.0,-999.0,56,0.00,,,0.00,MetarLogicWeatherSta,2013-04-05 14:08:00,
2013-04-05 10:13:00,42.0,27.1,29.94,SW,225,4.0,-999.0,55,0.00,,,0.00,MetarLogicWeatherSta,2013-04-05 14:13:00,
2013-04-05 10:18:00,41.8,25.8,29.94,SW,225,6.0,-999.0,52,0.00,,,0.00,MetarLogicWeatherSta,2013-04-05 14:18:00,
2013-04-05 10:23:00,41.4,25.6,29.94,SW,225,4.0,-999.0,53,0.00,,,0.00,MetarLogicWeatherSta,2013-04-05 14:23:00,
2013-04-05 10:28:00,42.1,26.0,29.95,SW,225,6.0,-999.0,52,0.00,,,0.00,MetarLogicWeatherSta,2013-04-05 14:28:00,
2013-04-05 10:33:00,42.0,26.4,29.94,SW,225,4.0,-999.0,53,0.00,,,0.00,MetarLogicWeatherSta,2013-04-05 14:33:00,
2013-04-05 10:38:00,41.9,26.4,29.95,SW,225,3.0,-999.0,53,0.00,,,0.00,MetarLogicWeatherSta,2013-04-05 14:38:00,
2013-04-05 10:43:00,41.7,25.6,29.94,WSW,247,7.0,-999.0,52,0.00,,,0.00,MetarLogicWeatherSta,2013-04-05 14:43:00,
2013-04-05 10:48:00,41.5,25.7,29.95,SW,225,9.0,-999.0,53,0.00,,,0.00,MetarLogicWeatherSta,2013-04-05 14:48:00,
2013-04-05 10:53:00,42.1,25.5,29.95,SW,225,6.0,-999.0,51,0.00,,,0.00,MetarLogicWeatherSta,2013-04-05 14:53:00,
2013-04-05 10:58:00,43.2,25.7,29.94,SW,225,7.0,-999.0,49,0.00,,,0.00,MetarLogicWeatherSta,2013-04-05 14:58:00,
2013-04-05 11:03:00,43.0,25.4,29.95,WNW,292,6.0,-999.0,49,0.00,,,0.00,MetarLogicWeatherSta,2013-04-05 15:03:00,
2013-04-05 11:08:00,43.4,25.2,29.94,West,270,6.0,-999.0,48,0.00,,,0.00,MetarLogicWeatherSta,2013-04-05 15:08:00,
2013-04-05 11:13:00,43.0,24.8,29.95,SW,225,6.0,-999.0,48,0.00,,,0.00,MetarLogicWeatherSta,2013-04-05 15:13:00,
2013-04-05 11:18:00,42.3,23.9,29.95,WSW,247,10.0,-999.0,47,0.00,,,0.00,MetarLogicWeatherSta,2013-04-05 15:18:00,
2013-04-05 11:23:00,42.4,25.0,29.95,SW,225,7.0,-999.0,49,0.00,,,0.00,MetarLogicWeatherSta,2013-04-05 15:23:00,
2013-04-05 11:28:00,42.5,24.0,29.95,SSW,202,3.0,-999.0,47,0.00,,,0.00,MetarLogicWeatherSta,2013-04-05 15:28:00,
2013-04-05 11:33:00,42.6,24.7,29.95,WSW,247,6.0,-999.0,48,0.00,,,0.00,MetarLogicWeatherSta,2013-04-05 15:33:00,
2013-04-05 11:38:00,42.3,24.9,29.95,WSW,247,7.0,-999.0,49,0.00,,,0.00,MetarLogicWeatherSta,2013-04-05 15:38:00,
2013-04-05 11:43:00,42.1,24.7,29.95,SW,225,6.0,-999.0,49,0.00,,,0.00,MetarLogicWeatherSta,2013-04-05 15:43:00,
2013-04-05 11:50:00,43.1,25.3,29.95,SW,225,9.0,-999.0,49,0.00,,,0.00,MetarLogicWeatherSta,2013-04-05 15:50:00,
2013-04-05 11:55:00,42.9,26.1,29.95,SW,225,7.0,-999.0,51,0.00,,,0.00,MetarLogicWeatherSta,2013-04-05 15:55:00,
2013-04-05 12:00:00,42.7,25.1,29.95,SW,225,7.0,-999.0,49,0.00,,,0.00,MetarLogicWeatherSta,2013-04-05 16:00:00,
2013-04-05 12:05:00,42.5,24.7,29.95,SW,225,4.0,-999.0,49,0.00,,,0.00,MetarLogicWeatherSta,2013-04-05 16:05:00,
2013-04-05 12:11:00,43.3,24.8,29.95,SSW,202,4.0,-999.0,47,0.00,,,0.00,MetarLogicWeatherSta,2013-04-05 16:11:00,
2013-04-05 12:16:00,43.5,24.6,29.96,SW,225,7.0,-999.0,47,0.00,,,0.00,MetarLogicWeatherSta,2013-04-05 16:16:00,
2013-04-05 12:21:00,43.8,25.4,29.95,SW,225,6.0,-999.0,48,0.00,,,0.00,MetarLogicWeatherSta,2013-04-05 16:21:00,
2013-04-05 12:26:00,43.7,24.8,29.95,West,270,9.0,-999.0,47,0.00,,,0.00,MetarLogicWeatherSta,2013-04-05 16:26:00,
2013-04-05 12:31:00,42.9,24.9,29.95,West,271,7.6,12.0,48,0.00,,,0.00,MetarLogicWeatherSta,2013-04-05 16:31:00,
2013-04-05 12:37:00,43.3,26.2,29.95,WSW,245,7.4,13.0,50,0.00,,,0.00,MetarLogicWeatherSta,2013-04-05 16:37:00,
2013-04-05 12:42:00,43.8,24.9,29.95,SSW,202,10.0,-999.0,47,0.00,,,0.00,MetarLogicWeatherSta,2013-04-05 16:42:00,
2013-04-05 12:47:00,44.0,24.9,29.96,WSW,247,6.0,-999.0,46,0.00,,,0.00,MetarLogicWeatherSta,2013-04-05 16:47:00,
2013-04-05 12:52:00,43.2,26.0,29.96,WNW,292,3.0,-999.0,50,0.00,,,0.00,MetarLogicWeatherSta,2013-04-05 16:52:00,
2013-04-05 12:57:00,44.1,26.2,29.96,WSW,247,7.0,-999.0,49,0.00,,,0.00,MetarLogicWeatherSta,2013-04-05 16:57:00,
2013-04-05 13:02:00,45.3,26.0,29.96,SSW,202,7.0,-999.0,46,0.00,,,0.00,MetarLogicWeatherSta,2013-04-05 17:02:00,
2013-04-05 13:07:00,43.9,25.4,29.96,SW,225,7.0,-999.0,47,0.00,,,0.00,MetarLogicWeatherSta,2013-04-05 17:07:00,
2013-04-05 13:12:00,43.0,25.7,29.96,SW,225,4.0,-999.0,50,0.00,,,0.00,MetarLogicWeatherSta,2013-04-05 17:12:00,
2013-04-05 13:17:00,43.0,26.0,29.96,WSW,247,4.0,-999.0,50,0.00,,,0.00,MetarLogicWeatherSta,2013-04-05 17:17:00,
2013-04-05 13:22:00,43.1,25.5,29.96,SW,225,3.0,-999.0,49,0.00,,,0.00,MetarLogicWeatherSta,2013-04-05 17:22:00,
2013-04-05 13:28:00,43.4,25.3,29.96,SW,225,4.0,-999.0,48,0.00,,,0.00,MetarLogicWeatherSta,2013-04-05 17:28:00,
2013-04-05 13:33:00,42.0,26.5,29.96,South,180,3.0,-999.0,53,0.00,,,0.00,MetarLogicWeatherSta,2013-04-05 17:33:00,
2013-04-05 13:38:00,42.5,27.6,29.96,SSW,202,3.0,-999.0,55,0.00,,,0.00,MetarLogicWeatherSta,2013-04-05 17:38:00,
2013-04-05 13:43:00,42.3,25.9,29.96,SW,225,9.0,-999.0,51,0.00,,,0.00,MetarLogicWeatherSta,2013-04-05 17:43:00,
2013-04-05 13:50:00,42.1,26.2,29.96,SSW,202,6.0,-999.0,53,0.00,,,0.00,MetarLogicWeatherSta,2013-04-05 17:50:00,
2013-04-05 13:55:00,41.4,25.6,29.96,West,270,6.0,-999.0,53,0.00,,,0.00,MetarLogicWeatherSta,2013-04-05 17:55:00,
2013-04-05 14:00:00,41.1,25.3,29.96,SW,225,7.0,-999.0,53,0.00,,,0.00,MetarLogicWeatherSta,2013-04-05 18:00:00,
2013-04-05 14:05:00,41.0,25.2,29.96,SW,225,3.0,-999.0,53,0.00,,,0.00,MetarLogicWeatherSta,2013-04-05 18:05:00,
2013-04-05 14:10:00,40.4,25.9,29.97,WSW,247,4.0,-999.0,55,0.00,,,0.00,MetarLogicWeatherSta,2013-04-05 18:10:00,
2013-04-05 14:15:00,40.5,26.6,29.96,SW,225,4.0,-999.0,57,0.00,,,0.00,MetarLogicWeatherSta,2013-04-05 18:15:00,
2013-04-05 14:20:00,40.7,26.2,29.97,WSW,247,6.0,-999.0,55,0.00,,,0.00,MetarLogicWeatherSta,2013-04-05 18:20:00,
2013-04-05 14:25:00,40.8,26.0,29.96,SW,225,7.0,-999.0,55,0.00,,,0.00,MetarLogicWeatherSta,2013-04-05 18:25:00,
2013-04-05 14:30:00,40.9,25.9,29.96,SW,225,9.0,-999.0,54,0.00,,,0.00,MetarLogicWeatherSta,2013-04-05 18:30:00,
2013-04-05 14:35:00,41.2,26.0,29.96,SW,225,7.0,-999.0,54,0.00,,,0.00,MetarLogicWeatherSta,2013-04-05 18:35:00,
2013-04-05 14:41:00,40.9,24.9,29.96,SSW,202,10.0,-999.0,52,0.00,,,0.00,MetarLogicWeatherSta,2013-04-05 18:41:00,
2013-04-05 14:46:00,40.5,25.7,29.96,SW,225,7.0,-999.0,55,0.00,,,0.00,MetarLogicWeatherSta,2013-04-05 18:46:00,
2013-04-05 14:51:00,39.9,25.2,29.96,WSW,247,7.0,-999.0,55,0.00,,,0.00,MetarLogicWeatherSta,2013-04-05 18:51:00,
2013-04-05 14:56:00,39.9,24.7,29.96,WSW,247,12.0,-999.0,54,0.00,,,0.00,MetarLogicWeatherSta,2013-04-05 18:56:00,
2013-04-05 15:03:00,39.9,25.0,29.96,WSW,247,4.0,-999.0,55,0.00,,,0.00,MetarLogicWeatherSta,2013-04-05 19:03:00,
2013-04-05 15:08:00,41.1,23.5,29.96,SW,225,9.0,-999.0,49,0.00,,,0.00,MetarLogicWeatherSta,2013-04-05 19:08:00,
2013-04-05 15:13:00,40.8,23.4,29.96,SSW,202,3.0,-999.0,49,0.00,,,0.00,MetarLogicWeatherSta,2013-04-05 19:13:00,
2013-04-05 15:18:00,40.2,23.2,29.96,SW,225,4.0,-999.0,50,0.00,,,0.00,MetarLogicWeatherSta,2013-04-05 19:18:00,
2013-04-05 15:23:00,40.4,23.7,29.97,WSW,247,6.0,-999.0,51,0.00,,,0.00,MetarLogicWeatherSta,2013-04-05 19:23:00,
2013-04-05 15:28:00,40.5,23.9,29.96,SW,225,3.0,-999.0,51,0.00,,,0.00,MetarLogicWeatherSta,2013-04-05 19:28:00,
2013-04-05 15:33:00,40.8,25.0,29.96,WSW,247,7.0,-999.0,53,0.00,,,0.00,MetarLogicWeatherSta,2013-04-05 19:33:00,
2013-04-05 15:38:00,41.6,24.2,29.96,SW,225,4.0,-999.0,49,0.00,,,0.00,MetarLogicWeatherSta,2013-04-05 19:38:00,
2013-04-05 15:43:00,41.4,23.7,29.96,SW,225,3.0,-999.0,49,0.00,,,0.00,MetarLogicWeatherSta,2013-04-05 19:43:00,
2013-04-05 15:48:00,41.1,23.0,29.96,SSW,202,7.0,-999.0,48,0.00,,,0.00,MetarLogicWeatherSta,2013-04-05 19:48:00,
2013-04-05 15:53:00,41.0,22.1,29.96,SW,225,7.0,-999.0,46,0.00,,,0.00,MetarLogicWeatherSta,2013-04-05 19:53:00,
2013-04-05 15:58:00,41.7,22.5,29.96,SSW,202,10.0,-999.0,46,0.00,,,0.00,MetarLogicWeatherSta,2013-04-05 19:58:00,
2013-04-05 16:03:00,41.4,22.6,29.96,West,270,9.0,-999.0,46,0.00,,,0.00,MetarLogicWeatherSta,2013-04-05 20:03:00,
2013-04-05 16:08:00,40.7,23.7,29.97,SSW,202,4.0,-999.0,50,0.00,,,0.00,MetarLogicWeatherSta,2013-04-05 20:08:00,
2013-04-05 16:13:00,40.1,23.7,29.97,SSW,202,4.0,-999.0,51,0.00,,,0.00,MetarLogicWeatherSta,2013-04-05 20:13:00,
2013-04-05 16:18:00,40.5,24.3,29.97,SW,225,9.0,-999.0,52,0.00,,,0.00,MetarLogicWeatherSta,2013-04-05 20:18:00,
2013-04-05 16:23:00,40.4,24.7,29.96,SW,225,4.0,-999.0,53,0.00,,,0.00,MetarLogicWeatherSta,2013-04-05 20:23:00,
2013-04-05 16:28:00,40.7,25.4,29.97,SW,225,7.0,-999.0,54,0.00,,,0.00,MetarLogicWeatherSta,2013-04-05 20:28:00,
2013-04-05 16:33:00,40.5,25.1,29.97,SSW,202,6.0,-999.0,53,0.00,,,0.00,MetarLogicWeatherSta,2013-04-05 20:33:00,
2013-04-05 16:38:00,40.0,25.5,29.97,SW,225,6.0,-999.0,55,0.00,,,0.00,MetarLogicWeatherSta,2013-04-05 20:38:00,
2013-04-05 16:43:00,40.8,25.6,29.98,WSW,247,4.0,-999.0,54,0.00,,,0.00,MetarLogicWeatherSta,2013-04-05 20:43:00,
2013-04-05 16:48:00,40.7,24.9,29.98,SW,225,7.0,-999.0,53,0.00,,,0.00,MetarLogicWeatherSta,2013-04-05 20:48:00,
2013-04-05 16:53:00,39.8,25.2,29.98,WSW,247,9.0,-999.0,55,0.00,,,0.00,MetarLogicWeatherSta,2013-04-05 20:53:00,
2013-04-05 16:58:00,39.3,26.0,29.98,WSW,247,7.0,-999.0,58,0.00,,,0.00,MetarLogicWeatherSta,2013-04-05 20:58:00,
2013-04-05 17:03:00,38.9,26.0,29.98,SSW,202,3.0,-999.0,59,0.00,,,0.00,MetarLogicWeatherSta,2013-04-05 21:03:00,
2013-04-05 17:08:00,39.0,24.8,29.98,WSW,247,4.0,-999.0,56,0.00,,,0.00,MetarLogicWeatherSta,2013-04-05 21:08:00,
2013-04-05 17:13:00,39.7,24.7,29.98,WSW,247,7.0,-999.0,54,0.00,,,0.00,MetarLogicWeatherSta,2013-04-05 21:13:00,
2013-04-05 17:18:00,39.5,24.1,29.98,SW,225,6.0,-999.0,53,0.00,,,0.00,MetarLogicWeatherSta,2013-04-05 21:18:00,
2013-04-05 17:23:00,39.0,24.5,29.98,SW,225,4.0,-999.0,55,0.00,,,0.00,MetarLogicWeatherSta,2013-04-05 21:23:00,
2013-04-05 17:28:00,39.4,24.3,29.99,SW,225,7.0,-999.0,54,0.00,,,0.00,MetarLogicWeatherSta,2013-04-05 21:28:00,
2013-04-05 17:33:00,40.0,24.0,29.98,SW,225,3.0,-999.0,52,0.00,,,0.00,MetarLogicWeatherSta,2013-04-05 21:33:00,
2013-04-05 17:38:00,39.9,23.5,29.99,WSW,247,4.0,-999.0,51,0.00,,,0.00,MetarLogicWeatherSta,2013-04-05 21:38:00,
2013-04-05 17:43:00,39.3,23.2,30.00,SW,225,6.0,-999.0,52,0.00,,,0.00,MetarLogicWeatherSta,2013-04-05 21:43:00,
2013-04-05 17:48:00,38.6,23.2,30.00,SW,225,4.0,-999.0,53,0.00,,,0.00,MetarLogicWeatherSta,2013-04-05 21:48:00,
2013-04-05 17:53:00,38.7,23.3,30.00,West,270,7.0,-999.0,53,0.00,,,0.00,MetarLogicWeatherSta,2013-04-05 21:53:00,
2013-04-05 17:58:00,38.4,23.0,30.00,WSW,247,6.0,-999.0,53,0.00,,,0.00,MetarLogicWeatherSta,2013-04-05 21:58:00,
2013-04-05 18:03:00,38.1,22.8,30.01,SSW,202,10.0,-999.0,53,0.00,,,0.00,MetarLogicWeatherSta,2013-04-05 22:03:00,
2013-04-05 18:08:00,37.8,22.1,30.01,SW,225,4.0,-999.0,52,0.00,,,0.00,MetarLogicWeatherSta,2013-04-05 22:08:00,
2013-04-05 18:13:00,37.8,22.4,30.01,SW,225,6.0,-999.0,53,0.00,,,0.00,MetarLogicWeatherSta,2013-04-05 22:13:00,
2013-04-05 18:20:00,37.8,21.8,30.01,West,270,15.0,-999.0,52,0.00,,,0.00,MetarLogicWeatherSta,2013-04-05 22:20:00,
2013-04-05 18:25:00,37.5,22.0,30.01,SW,225,3.0,-999.0,53,0.00,,,0.00,MetarLogicWeatherSta,2013-04-05 22:25:00,
2013-04-05 18:30:00,37.9,21.6,30.02,West,270,9.0,-999.0,51,0.00,,,0.00,MetarLogicWeatherSta,2013-04-05 22:30:00,
2013-04-05 18:35:00,38.2,21.4,30.02,WSW,247,4.0,-999.0,50,0.00,,,0.00,MetarLogicWeatherSta,2013-04-05 22:35:00,
2013-04-05 18:40:00,38.1,20.7,30.02,SW,225,3.0,-999.0,49,0.00,,,0.00,MetarLogicWeatherSta,2013-04-05 22:40:00,
2013-04-05 18:45:00,37.7,20.4,30.02,SW,225,3.0,-999.0,49,0.00,,,0.00,MetarLogicWeatherSta,2013-04-05 22:45:00,
2013-04-05 18:50:00,37.7,20.3,30.03,SSW,202,3.0,-999.0,49,0.00,,,0.00,MetarLogicWeatherSta,2013-04-05 22:50:00,
2013-04-05 18:55:00,37.3,20.2,30.03,SW,225,6.0,-999.0,49,0.00,,,0.00,MetarLogicWeatherSta,2013-04-05 22:55:00,
2013-04-05 19:00:00,36.9,20.0,30.03,SW,225,4.0,-999.0,50,0.00,,,0.00,MetarLogicWeatherSta,2013-04-05 23:00:00,
2013-04-05 19:05:00,36.4,20.2,30.03,South,180,1.0,-999.0,51,0.00,,,0.00,MetarLogicWeatherSta,2013-04-05 23:05:00,
2013-04-05 19:10:00,36.3,20.0,30.03,West,270,6.0,-999.0,51,0.00,,,0.00,MetarLogicWeatherSta,2013-04-05 23:10:00,
2013-04-05 19:15:00,35.9,19.9,30.03,SW,225,3.0,-999.0,51,0.00,,,0.00,MetarLogicWeatherSta,2013-04-05 23:15:00,
2013-04-05 19:20:00,35.5,20.0,30.03,SW,225,4.0,-999.0,52,0.00,,,0.00,MetarLogicWeatherSta,2013-04-05 23:20:00,
2013-04-05 19:25:00,35.2,19.6,30.03,WSW,247,3.0,-999.0,52,0.00,,,0.00,MetarLogicWeatherSta,2013-04-05 23:25:00,
2013-04-05 19:30:00,35.2,19.9,30.04,South,180,3.0,-999.0,53,0.00,,,0.00,MetarLogicWeatherSta,2013-04-05 23:30:00,
2013-04-05 19:35:00,34.6,19.4,30.04,SSW,202,4.0,-999.0,53,0.00,,,0.00,MetarLogicWeatherSta,2013-04-05 23:35:00,
2013-04-05 19:40:00,34.2,19.2,30.05,SSW,202,1.0,-999.0,54,0.00,,,0.00,MetarLogicWeatherSta,2013-04-05 23:40:00,
2013-04-05 19:45:00,33.8,18.3,30.05,WSW,247,4.0,-999.0,52,0.00,,,0.00,MetarLogicWeatherSta,2013-04-05 23:45:00,
2013-04-05 19:50:00,33.8,18.3,30.05,South,180,4.0,-999.0,52,0.00,,,0.00,MetarLogicWeatherSta,2013-04-05 23:50:00,
2013-04-05 19:55:00,33.5,18.0,30.05,South,180,1.0,-999.0,52,0.00,,,0.00,MetarLogicWeatherSta,2013-04-05 23:55:00,
2013-04-05 20:00:00,33.3,17.8,30.05,SSW,202,7.0,-999.0,52,0.00,,,0.00,MetarLogicWeatherSta,2013-04-06 00:00:00,
2013-04-05 20:05:00,32.9,17.8,30.06,SSW,202,1.0,-999.0,53,0.00,,,0.00,MetarLogicWeatherSta,2013-04-06 00:05:00,
2013-04-05 20:13:00,32.7,17.8,30.06,SSW,202,1.0,-999.0,53,0.00,,,0.00,MetarLogicWeatherSta,2013-04-06 00:13:00,
2013-04-05 20:18:00,32.5,17.4,30.06,West,270,3.0,-999.0,53,0.00,,,0.00,MetarLogicWeatherSta,2013-04-06 00:18:00,
2013-04-05 20:23:00,32.1,17.2,30.07,South,180,1.0,-999.0,53,0.00,,,0.00,MetarLogicWeatherSta,2013-04-06 00:23:00,
2013-04-05 20:28:00,31.7,17.2,30.07,SSW,202,3.0,-999.0,54,0.00,,,0.00,MetarLogicWeatherSta,2013-04-06 00:28:00,
2013-04-05 20:33:00,31.6,17.2,30.07,SW,225,4.0,-999.0,55,0.00,,,0.00,MetarLogicWeatherSta,2013-04-06 00:33:00,
2013-04-05 20:38:00,31.4,17.2,30.07,SW,225,3.0,-999.0,55,0.00,,,0.00,MetarLogicWeatherSta,2013-04-06 00:38:00,
2013-04-05 20:43:00,31.3,17.1,30.07,SSW,202,1.0,-999.0,55,0.00,,,0.00,MetarLogicWeatherSta,2013-04-06 00:43:00,
2013-04-05 20:48:00,30.9,16.7,30.07,SSW,202,4.0,-999.0,55,0.00,,,0.00,MetarLogicWeatherSta,2013-04-06 00:48:00,
2013-04-05 20:53:00,31.0,16.9,30.08,West,270,6.0,-999.0,55,0.00,,,0.00,MetarLogicWeatherSta,2013-04-06 00:53:00,
2013-04-05 20:58:00,31.0,17.0,30.08,SSW,202,1.0,-999.0,55,0.00,,,0.00,MetarLogicWeatherSta,2013-04-06 00:58:00,
2013-04-05 21:03:00,31.0,17.3,30.08,SSW,202,3.0,-999.0,56,0.00,,,0.00,MetarLogicWeatherSta,2013-04-06 01:03:00,
2013-04-05 21:08:00,30.8,17.5,30.09,SSW,202,3.0,-999.0,57,0.00,,,0.00,MetarLogicWeatherSta,2013-04-06 01:08:00,
2013-04-05 21:13:00,30.5,17.8,30.09,SW,225,4.0,-999.0,58,0.00,,,0.00,MetarLogicWeatherSta,2013-04-06 01:13:00,
2013-04-05 21:18:00,30.3,17.4,30.09,SSW,202,4.0,-999.0,58,0.00,,,0.00,MetarLogicWeatherSta,2013-04-06 01:18:00,
2013-04-05 21:23:00,30.1,17.5,30.09,SSW,202,3.0,-999.0,59,0.00,,,0.00,MetarLogicWeatherSta,2013-04-06 01:23:00,
2013-04-05 21:28:00,30.0,17.4,30.09,South,180,1.0,-999.0,59,0.00,,,0.00,MetarLogicWeatherSta,2013-04-06 01:28:00,
2013-04-05 21:33:00,30.0,17.5,30.10,SSW,202,3.0,-999.0,59,0.00,,,0.00,MetarLogicWeatherSta,2013-04-06 01:33:00,
2013-04-05 21:38:00,30.0,17.7,30.10,SSE,157,1.0,-999.0,60,0.00,,,0.00,MetarLogicWeatherSta,2013-04-06 01:38:00,
2013-04-05 21:43:00,29.5,17.5,30.10,South,180,1.0,-999.0,60,0.00,,,0.00,MetarLogicWeatherSta,2013-04-06 01:43:00,
2013-04-05 21:48:00,29.1,17.4,30.11,South,180,3.0,-999.0,61,0.00,,,0.00,MetarLogicWeatherSta,2013-04-06 01:48:00,
2013-04-05 21:53:00,29.1,17.6,30.11,SSW,202,1.0,-999.0,62,0.00,,,0.00,MetarLogicWeatherSta,2013-04-06 01:53:00,
2013-04-05 21:58:00,28.8,17.8,30.11,SSW,202,1.0,-999.0,63,0.00,,,0.00,MetarLogicWeatherSta,2013-04-06 01:58:00,
2013-04-05 22:03:00,28.6,17.7,30.11,SSW,202,4.0,-999.0,63,0.00,,,0.00,MetarLogicWeatherSta,2013-04-06 02:03:00,
2013-04-05 22:08:00,28.6,17.7,30.11,SSW,202,3.0,-999.0,63,0.00,,,0.00,MetarLogicWeatherSta,2013-04-06 02:08:00,
2013-04-05 22:13:00,28.8,17.8,30.11,SSW,202,3.0,-999.0,63,0.00,,,0.00,MetarLogicWeatherSta,2013-04-06 02:13:00,
2013-04-05 22:18:00,28.8,17.9,30.11,South,180,1.0,-999.0,63,0.00,,,0.00,MetarLogicWeatherSta,2013-04-06 02:18:00,
2013-04-05 22:23:00,28.8,17.8,30.11,SW,225,4.0,-999.0,63,0.00,,,0.00,MetarLogicWeatherSta,2013-04-06 02:23:00,
2013-04-05 22:28:00,28.7,18.0,30.11,South,180,3.0,-999.0,63,0.00,,,0.00,MetarLogicWeatherSta,2013-04-06 02:28:00,
2013-04-05 22:33:00,28.7,18.2,30.11,SSW,202,1.0,-999.0,64,0.00,,,0.00,MetarLogicWeatherSta,2013-04-06 02:33:00,
2013-04-05 22:38:00,28.7,18.0,30.12,South,180,1.0,-999.0,64,0.00,,,0.00,MetarLogicWeatherSta,2013-04-06 02:38:00,
2013-04-05 22:43:00,28.6,18.1,30.12,South,180,1.0,-999.0,64,0.00,,,0.00,MetarLogicWeatherSta,2013-04-06 02:43:00,
2013-04-05 22:48:00,28.3,17.8,30.12,SSW,202,1.0,-999.0,64,0.00,,,0.00,MetarLogicWeatherSta,2013-04-06 02:48:00,
2013-04-05 22:53:00,28.3,18.2,30.12,SW,225,3.0,-999.0,65,0.00,,,0.00,MetarLogicWeatherSta,2013-04-06 02:53:00,
2013-04-05 22:58:00,28.5,18.3,30.13,South,180,1.0,-999.0,65,0.00,,,0.00,MetarLogicWeatherSta,2013-04-06 02:58:00,
2013-04-05 23:03:00,28.3,18.0,30.13,SSW,202,3.0,-999.0,65,0.00,,,0.00,MetarLogicWeatherSta,2013-04-06 03:03:00,
2013-04-05 23:08:00,28.3,18.3,30.13,SSW,202,3.0,-999.0,65,0.00,,,0.00,MetarLogicWeatherSta,2013-04-06 03:08:00,
2013-04-05 23:13:00,28.2,18.0,30.13,South,180,1.0,-999.0,65,0.00,,,0.00,MetarLogicWeatherSta,2013-04-06 03:13:00,
2013-04-05 23:18:00,28.1,17.9,30.13,South,180,0.0,-999.0,65,0.00,,,0.00,MetarLogicWeatherSta,2013-04-06 03:18:00,
2013-04-05 23:23:00,28.0,18.1,30.13,South,180,1.0,-999.0,66,0.00,,,0.00,MetarLogicWeatherSta,2013-04-06 03:23:00,
2013-04-05 23:28:00,27.8,18.1,30.13,South,180,1.0,-999.0,66,0.00,,,0.00,MetarLogicWeatherSta,2013-04-06 03:28:00,
2013-04-05 23:33:00,27.7,18.0,30.13,South,180,0.0,-999.0,66,0.00,,,0.00,MetarLogicWeatherSta,2013-04-06 03:33:00,
2013-04-05 23:38:00,27.5,17.9,30.14,South,180,1.0,-999.0,66,0.00,,,0.00,MetarLogicWeatherSta,2013-04-06 03:38:00,
2013-04-05 23:43:00,27.4,17.9,30.14,SSE,157,0.0,-999.0,67,0.00,,,0.00,MetarLogicWeatherSta,2013-04-06 03:43:00,
2013-04-05 23:48:00,27.4,17.9,30.14,South,180,0.0,-999.0,67,0.00,,,0.00,MetarLogicWeatherSta,2013-04-06 03:48:00,
2013-04-05 23:53:00,27.1,17.7,30.14,SSE,157,0.0,-999.0,67,0.00,,,0.00,MetarLogicWeatherSta,2013-04-06 03:53:00,
2013-04-05 23:58:00,26.9,17.3,30.14,SSE,157,0.0,-999.0,66,0.00,,,0.00,MetarLogicWeatherSta,2013-04-06 03:58:00,